RADUGA-1 1 [-]

Last updated on Jan. 21, 2021, 6:16 a.m. UTC

1 20083U 89048A   21020.85942916 -.00000081  00000-0  00000-0 0  9991
2 20083  14.7089 349.9705 0020991  92.1431  89.8887  0.98707308111791
UTC
Height (km)
Latitude
Longitude
Inclination
Orbital Period
UTC large
Height (km)
Speed (km/s)
/
Latitude / Longitude
Inclination (degrees)
Orbital Period (minutes)
Azimuth
Elevation
Range (km)
Doppler Factor
iOS Compass Heading
iOS Angle

Next 30 passes for location: Hong Kong

Rise time Rise Azimuth (degrees) Set time Set Azimuth (degrees) Duration Max altitude (degrees)

No matching passes for this satellites